www.pogodaiklimat.ru

Погода и климат >> Архив погоды >> Норвегия >> Аэропорт Mo i Rana


ПОГОДА в Аэропорту Mo i Rana

  • Прогноз погоды в Аэропорту Mo i Rana
  • Монитор погоды в Аэропорту Mo i Rana

АРХИВ ПОГОДЫ в Аэропорту Mo i Rana

Время (UTC), дата Ветер
(напр.,м/с)
 
Видим.   Явления Облачность Т
(С)
Тd
(С)
f
(%)
Тe
(С)
Тes
(С)
Комфортность P
(гПа)
Po
(гПа)
Тmin
(С)
Tmax
(С)
R
(мм)
R24
(мм)
S
(см)
10 18.06 С 2
{6}
н/о н/о +11.3 +9.3 87 +10 +10 1010.2 1001.8
11 18.06 В 1
{3}
н/о н/о +12.7 +8.6 76 +13 +13 1009.9 1001.5
12 18.06 З 1
{7}
н/о н/о +14.5 +7.2 62 +15 +15 1009.7 1001.4
13 18.06 ЮЗ 1
{2}
н/о н/о +15.0 +6.8 58 +16 +16 1009.5 1001.2
14 18.06 С 2
{6}
н/о н/о +16.3 +7.3 55 +16 +16 1009.2 1000.9
15 18.06 СЗ 3
{5}
н/о н/о +15.8 +6.8 55 +15 +15 1009.1 1000.8
16 18.06 СЗ 4
{5}
н/о н/о +16.5 +6.4 51 +16 +16 1008.7 1000.5
17 18.06 СЗ 3
{5}
н/о н/о +16.7 +7.0 53 +17 +17 1008.4 1000.2
18 18.06 СЗ 2
{6}
н/о н/о +15.0 +7.8 62 +15 +15 1008.4 1000.1 +10.7 +17.4
19 18.06 С 1
{3}
н/о н/о +15.0 +6.4 56 +16 +16 1008.0 999.8
20 18.06 З 1
{1}
н/о н/о +13.1 +7.4 68 +13 +13 1008.1 999.7
21 18.06 штиль 0
{1}
н/о н/о +11.6 +7.5 76 +11 +11 1008.2 999.8
22 18.06 В 1
{2}
н/о н/о +10.8 +8.1 83 +11 +11 1008.2 999.8
23 18.06 В 2
{3}
н/о н/о +9.9 +8.1 89 +8 +8 1008.2 999.7
00 19.06 СЗ 1
{3}
н/о н/о +9.5 +7.5 87 +9 +9 1008.2 999.8
01 19.06 ЮВ 1
{2}
н/о н/о +8.7 +7.5 92 +8 +8 1008.4 999.9
02 19.06 ЮВ 1
{2}
н/о н/о +8.3 +7.2 93 +7 +7 1008.6 1000.1
03 19.06 Ю 1
{3}
н/о н/о +9.0 +7.7 92 +8 +8 1008.9 1000.4
04 19.06 В 2
{3}
н/о н/о +10.3 +8.3 87 +9 +9 1009.0 1000.6
05 19.06 В 1
{2}
н/о н/о +10.7 +8.7 87 +10 +10 1009.2 1000.7
06 19.06 Ю 2
{3}
н/о н/о +11.2 +9.5 89 +10 +10 1009.3 1000.9 +8.3 +15.4
07 19.06 ЮВ 2
{3}
н/о н/о +10.9 +9.6 92 +9 +9 1009.8 1001.4
08 19.06 В 1
{3}
н/о н/о +11.9 +9.4 85 +12 +12 1010.3 1001.9
09 19.06 Ю 2
{2}
н/о н/о +12.1 +9.7 85 +11 +11 1010.6 1002.3
10 19.06 ЮЗ 1
{2}
н/о н/о +12.3 +10.0 86 +12 +12 1011.0 1002.7
11 19.06 С 2
{4}
н/о н/о +12.3 +9.2 81 +11 +11 1011.5 1003.1
12 19.06 СЗ 2
{4}
н/о н/о +12.2 +9.5 84 +11 +11 1011.8 1003.4
13 19.06 СЗ 2
{4}
н/о н/о +12.5 +9.1 80 +12 +12 1011.9 1003.6
14 19.06 СЗ 4
{4}
н/о н/о +12.0 +9.1 82 +10 +10 1012.3 1003.9
15 19.06 З 1
{4}
н/о н/о +13.2 +10.2 82 +13 +13 1012.1 1003.8
16 19.06 С 1
{2}
н/о н/о +14.8 +9.9 72 +15 +15 1012.2 1003.9
17 19.06 Ю 1
{2}
н/о н/о +13.9 +8.8 71 +14 +14 1012.1 1003.8
18 19.06 ЮВ 2
{4}
н/о н/о +13.8 +8.7 71 +13 +13 1012.1 1003.7 +10.9 +16.2
19 19.06 ЮВ 1
{2}
н/о н/о +13.5 +9.4 76 +14 +14 1012.2 1003.9
20 19.06 В 2
{5}
н/о н/о +13.0 +9.7 80 +12 +12 1012.3 1003.9
21 19.06 ЮВ 1
{2}
н/о н/о +11.6 +8.8 83 +11 +11 1012.3 1003.9
22 19.06 В 2
{2}
н/о н/о +9.5 +7.9 90 +8 +8 1012.4 1003.9
23 19.06 Ю 1
{2}
н/о н/о +7.0 +5.6 91 +6 +6 1012.8 1004.2
00 20.06 штиль 0
{5}
н/о н/о +7.5 +6.8 95 +6 +6 1012.9 1004.4
01 20.06 штиль 0
{1}
н/о н/о +6.6 +6.0 96 +6 +6 1012.5 1004.0
02 20.06 ЮВ 1
{2}
н/о н/о +5.9 +5.1 95 +5 +5 1012.2 1003.6
03 20.06 С 1
{2}
н/о н/о +7.8 +6.8 93 +7 +7 1011.8 1003.3
04 20.06 Ю 2
{3}
н/о н/о +11.4 +7.3 76 +10 +10 1011.1 1002.7
05 20.06 СВ 2
{5}
н/о н/о +13.3 +7.7 69 +13 +13 1010.4 1002.1
06 20.06 В 4
{6}
н/о н/о +15.6 +6.7 55 +15 +15 1009.5 1001.3 +5.7 +15.6
07 20.06 В 4
{7}
н/о н/о +16.4 +6.5 52 +16 +16 1009.0 1000.8
08 20.06 В 4
{8}
н/о н/о +17.3 +7.7 53 +17 +17 1008.6 1000.4
09 20.06 В 4
{7}
н/о н/о +17.4 +7.9 54 +17 +17 1008.5 1000.3
10 20.06 ЮВ 5
{10}
н/о н/о +15.8 +7.7 59 +15 +15 1008.7 1000.4
11 20.06 В 3
{12}
н/о н/о +13.6 +9.7 77 +12 +12 1008.7 1000.4
12 20.06 В 2
{12}
н/о н/о +13.5 +9.7 78 +13 +13 1008.4 1000.1
13 20.06 В 4
{7}
н/о н/о +14.1 +8.3 68 +13 +13 1007.5 999.2
14 20.06 В 4
{8}
н/о н/о +13.9 +8.0 68 +13 +13 1006.8 998.5
15 20.06 В 4
{8}
н/о н/о +13.8 +8.6 71 +12 +12 1006.0 997.8
16 20.06 В 7
{9}
н/о н/о +14.1 +8.1 67 +12 +12 1005.2 997.0
17 20.06 В 5
{11}
н/о н/о +14.5 +7.5 63 +13 +13 1004.6 996.4
18 20.06 В 4
{11}
н/о н/о +14.8 +7.8 63 +14 +14 1004.2 996.0 +13.3 +17.8
19 20.06 В 5
{9}
н/о н/о +15.2 +8.0 62 +14 +14 1003.7 995.4
20 20.06 В 5
{9}
н/о н/о +15.3 +8.2 63 +14 +14 1003.4 995.2
21 20.06 СВ 5
{8}
н/о н/о +15.1 +8.5 65 +14 +14 1003.2 995.0
22 20.06 В 3
{8}
н/о н/о +14.9 +8.7 66 +14 +14 1002.9 994.7
23 20.06 ЮЗ 1
{6}
н/о н/о +14.0 +8.9 71 +14 +14 1002.7 994.4
00 21.06 СЗ 1
{9}
н/о н/о +13.7 +9.0 73 +14 +14 1002.5 994.3
01 21.06 СЗ 1
{3}
н/о н/о +13.5 +9.0 74 +14 +14 1002.4 994.1
02 21.06 СЗ 1
{3}
н/о н/о +12.7 +9.6 81 +13 +13 1002.5 994.2
03 21.06 В 1
{2}
н/о н/о +12.0 +10.6 91 +12 +12 1002.5 994.2
04 21.06 СЗ 2
{3}
н/о н/о +11.3 +10.2 93 +10 +10 1002.5 994.2
05 21.06 СЗ 2
{3}
н/о н/о +10.9 +10.2 95 +9 +9 1002.7 994.3
06 21.06 СЗ 2
{3}
н/о н/о +11.4 +10.7 95 +10 +10 1002.9 994.5 +10.9 +15.4
07 21.06 СВ 1
{2}
н/о н/о +11.6 +10.8 95 +11 +11 1003.1 994.8
08 21.06 СЗ 1
{2}
н/о н/о +11.9 +11.1 95 +12 +12 1003.4 995.1
09 21.06 З 1
{3}
н/о н/о +12.7 +11.7 94 +13 +13 1003.7 995.4
10 21.06 З 3
{7}
н/о н/о +12.6 +11.3 92 +11 +11 1004.2 995.9
11 21.06 С 1
{5}
н/о н/о +12.8 +11.3 91 +13 +13 1004.6 996.3
12 21.06 С 2
{7}
н/о н/о +12.5 +10.9 90 +12 +12 1005.2 996.9
13 21.06 ЮЗ 3
{8}
н/о н/о +12.1 +9.5 84 +10 +10 1005.9 997.5
14 21.06 ЮЗ 5
{8}
н/о н/о +11.4 +9.1 86 +9 +9 1006.4 998.0
15 21.06 С 1
{7}
н/о н/о +10.9 +9.4 90 +11 +11 1006.8 998.4
16 21.06 З 3
{6}
н/о н/о +11.0 +9.7 92 +9 +9 1007.1 998.7
17 21.06 СВ 2
{6}
н/о н/о +10.6 +9.2 91 +9 +9 1007.2 998.8
18 21.06 штиль 0
{8}
н/о н/о +10.5 +9.1 91 +10 +10 1007.3 998.9 +10.3 +13.0
19 21.06 ЮЗ 1
{2}
н/о н/о +10.3 +9.2 93 +10 +10 1007.5 999.0
20 21.06 штиль 0
{2}
н/о н/о +10.3 +9.3 94 +9 +9 1007.7 999.3
21 21.06 ЮЗ 1
{2}
н/о н/о +9.9 +9.1 95 +9 +9 1007.8 999.3
22 21.06 В 1
{1}
н/о н/о +9.6 +8.9 95 +9 +9 1007.9 999.5
23 21.06 В 1
{2}
н/о н/о +9.2 +8.6 96 +8 +8 1008.1 999.7
00 22.06 В 2
{2}
н/о н/о +9.3 +8.8 97 +7 +7 1008.0 999.6
01 22.06 В 1
{2}
н/о н/о +8.9 +8.3 96 +8 +8 1008.0 999.6
02 22.06 штиль 0
{1}
н/о н/о +8.9 +8.4 97 +8 +8 1008.1 999.7
03 22.06 В 2
{2}
н/о н/о +9.3 +8.7 96 +7 +7 1007.7 999.3
04 22.06 В 1
{2}
н/о н/о +9.4 +8.7 95 +9 +9 1007.6 999.2
05 22.06 З 1
{2}
н/о н/о +9.3 +8.7 96 +9 +9 1007.8 999.3
06 22.06 З 2
{5}
н/о н/о +10.1 +8.4 89 +9 +9 1007.7 999.3 +8.7 +10.5
07 22.06 З 2
{6}
н/о н/о +11.6 +7.9 78 +11 +11 1007.8 999.4
08 22.06 СЗ 3
{5}
н/о н/о +11.9 +8.1 78 +10 +10 1008.3 999.9
09 22.06 З 3
{6}
н/о н/о +10.9 +7.8 81 +9 +9 1008.8 1000.4
10 22.06 ЮЗ 2
{8}
н/о н/о +11.2 +8.3 82 +10 +10 1009.1 1000.7
11 22.06 З 4
{8}
н/о н/о +11.1 +6.3 72 +9 +9 1009.6 1001.2
12 22.06 З 5
{11}
н/о н/о +11.4 +6.5 72 +9 +9 1010.4 1002.0
13 22.06 З 4
{8}
н/о н/о +10.9 +7.1 77 +9 +9 1010.9 1002.5
14 22.06 СЗ 4
{8}
н/о н/о +10.7 +7.0 78 +8 +8 1011.2 1002.7
15 22.06 З 4
{11}
н/о н/о +10.7 +6.8 77 +8 +8 1011.8 1003.4
16 22.06 ЮЗ 5
{9}
н/о н/о +10.4 +6.9 79 +7 +7 1012.1 1003.6
17 22.06 З 5
{9}
н/о н/о +9.8 +6.7 81 +7 +7 1012.5 1004.0
18 22.06 З 3
{11}
н/о н/о +9.5 +7.1 85 +7 +7 1012.8 1004.4 +9.5 +12.0
19 22.06 З 6
{9}
н/о н/о +9.4 +6.6 83 +6 +6 1013.2 1004.7
20 22.06 З 3
{8}
н/о н/о +9.2 +6.4 83 +7 +7 1013.3 1004.8
21 22.06 З 2
{4}
н/о н/о +8.9 +6.3 84 +7 +7 1013.7 1005.2
22 22.06 ЮЗ 3
{8}
н/о н/о +9.0 +6.7 85 +7 +7 1014.1 1005.6
23 22.06 З 3
{7}
н/о н/о +8.8 +6.6 86 +6 +6 1014.6 1006.1
00 23.06 З 3
{9}
н/о н/о +8.7 +6.4 85 +6 +6 1014.9 1006.4
01 23.06 З 3
{7}
н/о н/о +8.2 +6.2 87 +5 +5 1015.3 1006.8
02 23.06 З 2
{5}
н/о н/о +8.6 +6.6 87 +7 +7 1015.6 1007.0
03 23.06 З 3
{5}
н/о н/о +8.8 +6.1 83 +6 +6 1015.8 1007.3
04 23.06 З 1
{4}
н/о н/о +8.4 +6.6 88 +8 +8 1015.9 1007.4
05 23.06 ЮВ 2
{2}
н/о н/о +9.1 +7.4 89 +7 +7 1016.1 1007.6
06 23.06 ЮВ 2
{7}
н/о н/о +9.5 +7.7 89 +8 +8 1016.2 1007.7 +8.1 +10.0
07 23.06 штиль 0
{2}
н/о н/о +9.7 +7.7 87 +9 +9 1016.4 1007.9
08 23.06 В 1
{2}
н/о н/о +10.1 +7.6 84 +10 +10 1016.7 1008.2
09 23.06 В 1
{2}
н/о н/о +9.9 +7.9 87 +9 +9 1017.3 1008.8
10 23.06 ЮВ 1
{4}
н/о н/о +10.4 +8.8 90 +10 +10 1017.9 1009.4
11 23.06 З 4
{7}
н/о н/о +11.2 +8.0 81 +9 +9 1018.4 1009.9
12 23.06 СЗ 4
{8}
н/о н/о +12.0 +7.9 76 +10 +10 1018.8 1010.3
13 23.06 СЗ 3
{6}
н/о н/о +10.2 +8.4 89 +8 +8 1019.5 1011.0
14 23.06 СЗ 3
{6}
н/о н/о +10.4 +7.8 84 +8 +8 1019.8 1011.3
15 23.06 З 2
{5}
н/о н/о +10.3 +7.9 85 +9 +9 1020.6 1012.1
16 23.06 З 3
{7}
н/о н/о +10.3 +7.4 82 +8 +8 1020.9 1012.4
17 23.06 З 3
{6}
н/о н/о +10.6 +7.4 81 +9 +9 1021.2 1012.7
18 23.06 З 1
{7}
н/о н/о +9.5 +7.3 86 +9 +9 1021.4 1012.9 +9.3 +13.0
19 23.06 СЗ 2
{4}
н/о н/о +8.9 +7.1 88 +7 +7 1022.0 1013.4
20 23.06 СВ 1
{4}
н/о н/о +8.9 +7.9 93 +8 +8 1022.4 1013.8
21 23.06 В 2
{2}
н/о н/о +8.9 +7.9 93 +7 +7 1022.9 1014.3
22 23.06 Ю 1
{2}
н/о н/о +8.8 +8.0 95 +8 +8 1023.4 1014.8
23 23.06 З 2
{5}
н/о н/о +8.9 +7.5 91 +7 +7 1024.1 1015.5
00 24.06 З 3
{6}
н/о н/о +8.7 +7.5 92 +6 +6 1024.7 1016.1
01 24.06 ЮЗ 4
{7}
н/о н/о +8.9 +7.2 89 +6 +6 1025.1 1016.5
02 24.06 ЮЗ 6
{11}
н/о н/о +8.6 +6.8 88 +5 +5 1025.6 1017.0
03 24.06 З 4
{8}
н/о н/о +8.6 +6.0 84 +5 +5 1026.2 1017.6
04 24.06 З 3
{8}
н/о н/о +8.6 +5.3 80 +6 +6 1026.6 1018.0
05 24.06 З 4
{8}
н/о н/о +8.5 +5.9 84 +5 +5 1027.2 1018.6
06 24.06 З 3
{11}
н/о н/о +8.7 +5.7 81 +6 +6 1027.8 1019.2 +8.4 +9.5
07 24.06 ЮЗ 2
{4}
н/о н/о +9.5 +6.2 80 +8 +8 1028.0 1019.4
08 24.06 З 3
{6}
н/о н/о +10.0 +6.8 80 +8 +8 1028.2 1019.6
09 24.06 ЮЗ 4
{9}
н/о н/о +9.2 +6.8 85 +6 +6 1029.0 1020.4
10 24.06
{5}
н/о н/о +9.9 +6.8 81 1029.3 1020.7
11 24.06 З 4
{7}
н/о н/о +11.7 +7.1 73 +10 +10 1029.3 1020.7
12 24.06 З 6
{9}
н/о н/о +11.2 +5.8 69 +8 +8 1029.5 1020.9
13 24.06 З 4
{8}
н/о н/о +9.6 +6.1 79 +7 +7 1029.9 1021.3
14 24.06 ЮЗ 4
{8}
н/о н/о +9.5 +6.6 82 +7 +7 1029.9 1021.2
15 24.06 ЮЗ 5
{8}
н/о н/о +10.1 +6.3 77 +7 +7 1029.8 1021.2
16 24.06 ЮЗ 4
{8}
н/о н/о +9.1 +6.2 82 +6 +6 1030.2 1021.5
17 24.06 З 4
{7}
н/о н/о +9.3 +6.1 80 +6 +6 1030.0 1021.4
18 24.06 З 4
{8}
н/о н/о +9.4 +6.0 79 +7 +7 1029.9 1021.3 +8.7 +11.7
19 24.06 З 2
{4}
н/о н/о +9.6 +5.4 75 +8 +8 1030.0 1021.4
20 24.06 З 2
{4}
н/о н/о +9.2 +5.2 76 +8 +8 1030.2 1021.5
21 24.06 штиль 0
{5}
н/о н/о +7.9 +5.6 85 +7 +7 1030.2 1021.6
22 24.06 С 1
{2}
н/о н/о +7.5 +5.9 90 +7 +7 1030.2 1021.5
23 24.06 ЮВ 1
{2}
н/о н/о +7.1 +5.9 92 +6 +6 1030.2 1021.5
00 25.06 ЮВ 1
{5}
н/о н/о +6.9 +6.0 94 +6 +6 1030.0 1021.3
01 25.06 ЮВ 1
{2}
н/о н/о +6.9 +6.1 95 +6 +6 1029.7 1021.0
02 25.06 В 1
{2}
н/о н/о +6.5 +5.7 95 +5 +5 1029.6 1020.9
03 25.06 Ю 1
{2}
н/о н/о +6.7 +6.0 95 +6 +6 1029.6 1020.9
04 25.06 штиль 0
{1}
н/о н/о +7.3 +6.5 95 +6 +6 1029.2 1020.5
05 25.06 В 1
{2}
н/о н/о +8.1 +6.9 92 +7 +7 1029.0 1020.4
06 25.06 С 1
{2}
н/о н/о +9.5 +6.5 82 +9 +9 1028.6 1020.0 +6.2 +9.7
07 25.06 С 1
{2}
н/о н/о +10.9 +6.5 74 +11 +11 1028.4 1019.8
08 25.06 СЗ 1
{3}
н/о н/о +11.1 +5.4 68 +11 +11 1028.3 1019.7
09 25.06 СЗ 3
{4}
н/о н/о +12.3 +5.7 64 +11 +11 1027.9 1019.4
10 25.06 СЗ 4
{5}
н/о н/о +13.4 +6.4 63 +12 +12 1027.6 1019.1

 

Местоположение метеостанции Аэропорт Mo i Rana (Норвегия): широта 66.36 долгота 14.30 высота над уровнем моря 70 м.

В архиве по умолчанию представлена погода в Аэропорту Mo i Rana за последнюю неделю. Архивные данные за месяц целиком и за предыдущие месяцы, начиная с января 2011 года, Вы можете получить, выбрав интересующий диапазон дат из раскрывающегося списка и нажав кнопку "Ввод!".


*Определитесь, кто Вы:
робот инопланетянин человек

Внимание! Время в таблицах - всемирное. Для получения местного времени необходимо прибавить поправку, которая равна 1 ч.

Смотрите также архив погоды в соседних городах и на ближайших метеорологических станциях:

Погода в Сторфоршее (Норвегия) (11 км)
Погода в Скамдале (Норвегия) (22 км)
Погода в Хяртасене (Норвегия) (33 км)
Погода в Сельджеля (Норвегия) (41 км)
Погода в Варнтреске (Норвегия) (66 км)
Погода в Рейпе (Норвегия) (67 км)
Погода в Хемаван аэропорту (Швеция) (72 км)
Погода в Хемаван Skorvfjallet (Швеция) (73 км)
Погода в Солвер III (Норвегия) (75 км)
Погода в Салтдале (Норвегия) (79 км)

Пояснения к столбцам:

Ветер - указаны скорость ветра в м/с - средняя за 10 мин, порывы в срок и между сроками (в фигурных скобках) и направление, откуда дует ветер: С - северный, СВ - северо-восточный, В - восточный, ЮВ - юго-восточный, Ю - южный, ЮЗ - юго-западный, З - западный, СЗ - северо-западный.
Видимость - горизонтальная дальность видимости в метрах или километрах. При видимости от 1 до 10 км при отсутствии осадков обычно наблюдается дымка, при ухудшении видимости до 1 км и менее - туман. В сухую погоду видимость может ухудшаться дымом, пылью или мглою.
Явления - указаны атмосферные явления, наблюдавшиеся в срок или в последний час перед сроком; фигурными скобками обозначены явления, наблюдавшиеся между сроками (за 1-3 часа до срока); квадратными скобками обозначены град или гололедные отложения с указанием их диаметра в мм.
Облачность - указаны через наклонную черту общая и нижняя облачность в баллах и высота нижней границы облаков в метрах; квадратными скобками обозначены формы облаков: Ci - перистые, Cs - перисто-слоистые, Cc - перисто-кучевые, Ac - высококучевые, As - высокослоистые, Sc - слоисто-кучевые, Ns - слоисто-дождевые, Cu - кучевые, Cb - кучево-дождевые. Подробнее классификацию облаков см. в Атласе облаков (PDF).
T - Температура воздуха - температура, измеренная на высоте 2 м над землей.
Td - Температура точки росы - температура, при понижении до которой содержащийся в воздухе водяной пар достигнет насыщения.
f - Относительная влажность воздуха - влажноcть воздуха, измеренная на высоте 2 м над землей.
Te - Эффективная температура - температура, которую ощущает одетый по сезону человек в тени. Характеристика душности погоды. При расчете учитывается влияние влажности воздуха и скорости ветра на теплоощущения человека.
Tes - Эффективная температура на солнце - температура, которую ощущает человек, с поправкой на солнечный нагрев. Характеристика знойности погоды. Зависит от высоты солнца над горизонтом, облачности и скорости ветра. Ночью, в пасмурную погоду, а также при ветре 12 м/с и более поправка равна нулю.
P - Атмосферное давление - приведенное к уровню моря атмосферное давление.
Po - Атмосферное давление - измеренное на уровне метеостанции атмосферное давление.
Tmin - Минимальная температура - минимум температуры воздуха на высоте 2 м над землей.
Tmax - Максимальная температура - максимум температуры воздуха на высоте 2 м над землей.
R - Количество осадков - Количество выпавших осадков за период времени, мм. При наведении курсора мыши на число - период времени, за который выпало указанное количество осадков.
R24 - Количество осадков - Количество выпавших осадков за 24 часа, мм.
S - Снежный покров - Высота снежного покрова, см. При наведении курсора мыши на число - состояние снежного покрова и степень покрытия местности в баллах.